This is the latest recevied weather packets stored in our database for station/object KC3WWU. If no packets are shown the sender has not sent any weather packets the latest 10 day(s).
| Time | Temp. | Humidity | Pressure | Rain* | Wind** | Luminosity | Snow |
|---|---|---|---|---|---|---|---|
| 1777474974 | 11.67° C | 99% | 1009.4 hPa | 10.16 mm | - | 20 W/m² | - |
| 1777474670 | 11.67° C | 99% | 1009.7 hPa | 3.05 mm | - | 14 W/m² | - |
| 1777474368 | 11.67° C | 99% | 1009.7 hPa | 1.78 mm | - | 13 W/m² | - |
| 1777474063 | 11.67° C | 99% | 1009.6 hPa | 3.05 mm | - | 15 W/m² | - |
| 1777473762 | 11.67° C | 99% | 1009.6 hPa | 1.27 mm | - | 20 W/m² | - |
| 1777473458 | 11.67° C | 99% | 1009.4 hPa | 0 mm | - | 17 W/m² | - |
| 1777473154 | 11.67° C | 99% | 1009.4 hPa | 0 mm | - | 22 W/m² | - |
| 1777472851 | 11.67° C | 99% | 1009.6 hPa | 0 mm | - | 21 W/m² | - |
| 1777472547 | 11.67° C | 99% | 1009.6 hPa | 0 mm | - | 21 W/m² | - |
| 1777472244 | 11.67° C | 99% | 1009.7 hPa | 0 mm | - | 26 W/m² | - |
| 1777471940 | 11.67° C | 99% | 1009.5 hPa | 0 mm | - | 34 W/m² | - |
| 1777471637 | 11.67° C | 99% | 1009.5 hPa | 0 mm | - | 40 W/m² | - |
| 1777471334 | 11.67° C | 99% | 1009.2 hPa | 0 mm | - | 53 W/m² | - |
| 1777471030 | 11.67° C | 99% | 1009.3 hPa | 0 mm | - | 58 W/m² | - |
| 1777470727 | 11.67° C | 99% | 1009.4 hPa | 0 mm | - | 65 W/m² | - |
| 1777470423 | 11.67° C | 99% | 1009.1 hPa | 0 mm | - | 55 W/m² | - |
| 1777470120 | 11.67° C | 99% | 1009.5 hPa | 0 mm | - | 56 W/m² | - |
| 1777469816 | 11.67° C | 99% | 1009.5 hPa | 0 mm | - | 39 W/m² | - |
| 1777469512 | 11.67° C | 99% | 1009.4 hPa | 0 mm | - | 39 W/m² | - |
| 1777469207 | 11.67° C | 99% | 1009.3 hPa | 0 mm | - | 40 W/m² | - |
| 1777468906 | 11.67° C | 99% | 1009.4 hPa | 0 mm | - | 42 W/m² | - |
| 1777468604 | 11.67° C | 99% | 1009.5 hPa | 0 mm | - | 42 W/m² | - |
| 1777468301 | 11.67° C | 99% | 1009.6 hPa | 0 mm | - | 47 W/m² | - |
| 1777467996 | 11.67° C | 99% | 1009.3 hPa | 0 mm | - | 61 W/m² | - |
| 1777467692 | 11.67° C | 99% | 1009.6 hPa | 0 mm | - | 60 W/m² | - |
* Rain latest hour (hover to see other rain measurements)
** Current wind speed in m/s (hover to see current wind gust speed)